www.pogodaiklimat.ru

Погода и климат >> Архив погоды >> Россия >> Чукотка >> Константиновская


ПОГОДА в Константиновской

  • Прогноз погоды в Константиновской
  • Монитор погоды в Константиновской
  • Климат города

АРХИВ ПОГОДЫ в Константиновской

Время (UTC), дата Ветер
(напр.,м/с)
 
Видим.   Явления Облачность Т
(С)
Тd
(С)
f
(%)
Тe
(С)
Тes
(С)
Комфортность P
(гПа)
Po
(гПа)
Тmin
(С)
Tmax
(С)
R
(мм)
R24
(мм)
S
(см)
09 10.12 СЗ 1
{4}
4000 м слабый снег 10/0
[As op]
-27.8 -30.9 75 -32 -32 опасность
обморожения
1021.7 1020.5 -27.1 0.4
12 10.12 СЗ 1
{3}
4000 м слабый снег 10/0
[As op]
-27.9 -30.9 75 -32 -32 опасность
обморожения
1022.3 1021.1
15 10.12 СЗ 1
{3}
4000 м слабый снег 10/0
[As op]
-27.7 -30.8 75 -32 -32 опасность
обморожения
1022.2 1021.0
18 10.12 С 1
{3}
4000 м слабый снег 10/0
[As op]
-27.5 -30.6 75 -31 -31 опасность
обморожения
1022.4 1021.2
21 10.12 С 1
{3}
4000 м слабый снег 10/0
[As op]
-27.4 -30.4 76 -31 -31 опасность
обморожения
1022.6 1021.4 -28.0 0.9 28
00 11.12 СЗ 1
{3}
4000 м слабый снег 10/0
[As op]
-27.6 -30.6 75 -31 -31 опасность
обморожения
1022.1 1020.9
03 11.12 З 1
{3}
4000 м слабый снег 10/0
[As op]
-27.3 -30.4 75 -31 -31 опасность
обморожения
1021.7 1020.5
06 11.12 С 1
{2}
10 км слабый снег 10/0
[As op]
-27.4 -30.4 76 -31 -31 опасность
обморожения
1021.5 1020.3
09 11.12 штиль 0
{2}
4000 м слабый снег 10/0
[As op]
-29.6 -32.6 75 -30 -30 1021.4 1020.2 -27.3 0.5
12 11.12 штиль 0
{1}
10 км слабый снег 10/0
[Ac trans Cs]
-34.2 -37.8 70 -34 -34 опасность
обморожения
1021.4 1020.2
15 11.12 штиль 0
{1}
10 км снежные кристаллы 10/0
[Ac trans Cs]
-34.7 -38.4 69 -35 -35 опасность
обморожения
1021.0 1019.8
18 11.12 штиль 0
{1}
50 км {снег} 8/0
[Ac trans Ci fib]
-36.8 -41.1 64 -37 -37 опасность
обморожения
1021.1 1019.9
21 11.12 штиль 0
{1}
50 км 6/0
[Ac trans Ci fib]
-38.1 -42.3 64 -38 -38 опасность
обморожения
1021.3 1020.0 -38.1 0.2 28
00 12.12 штиль 0
{1}
50 км 4/0
[Ac trans]
-38.7 -42.7 66 -39 -39 опасность
обморожения
1020.8 1019.5 -38.9
03 12.12 штиль 0
{1}
50 км 8/0
[Ac trans]
-35.2 -38.7 70 -35 -35 опасность
обморожения
1020.3 1019.1
06 12.12 штиль 0
{1}
10 км снежные кристаллы 10/0
[As op]
-31.0 -34.7 70 -31 -31 опасность
обморожения
1020.1 1018.9
09 12.12 штиль 0
{1}
4000 м слабый снег 10/0
[As op]
-29.7 -32.8 74 -30 -30 1019.7 1018.5 -29.7 0.0
12 12.12 В 1
{2}
4000 м слабый снег 10/0
[As op]
-28.9 -32.0 74 -33 -33 опасность
обморожения
1019.1 1017.9
15 12.12 штиль 0
{1}
50 км {снег} 4/0
[Ac trans Ci fib]
-35.2 -38.7 70 -35 -35 опасность
обморожения
1018.3 1017.1
18 12.12 штиль 0
{1}
50 км {снег} 3/0
[Ci fib]
-38.1 -42.3 64 -38 -38 опасность
обморожения
1017.8 1016.5
21 12.12 штиль 0
{1}
50 км 3/0
[Ci fib]
-39.3 -43.5 64 -39 -39 опасность
обморожения
1017.5 1016.2 -39.3 0.0 28
00 13.12 штиль 0
{1}
50 км 1/0
[Ci fib]
-39.7 -43.5 67 -40 -40 опасность
обморожения
1017.3 1016.0 -39.7
03 13.12 штиль 0
{1}
50 км ясно -39.8 -44.1 63 -40 -40 опасность
обморожения
1016.8 1015.5
06 13.12 штиль 0
{1}
50 км 3/0
[Ci fib]
-40.3 -45.3 59 -40 -40 опасность
обморожения
1016.5 1015.2
09 13.12 штиль 0
{1}
50 км 3/0
[Ci fib]
-40.4 -44.5 65 -40 -40 опасность
обморожения
1016.8 1015.5 -39.2
12 13.12 штиль 0
{1}
50 км 3/0
[Ci fib]
-40.8 -45.8 58 -41 -41 опасность
обморожения
1016.9 1015.6
15 13.12 штиль 0
{1}
50 км 3/0
[Ci fib]
-41.4 -46.3 59 -41 -41 опасность
обморожения
1016.5 1015.2
18 13.12 штиль 0
{1}
50 км 3/0
[Ci fib]
-41.7 -46.3 61 -42 -42 опасность
обморожения
1016.7 1015.4
21 13.12 штиль 0
{1}
50 км 3/0
[Ci fib]
-41.8 -46.3 61 -42 -42 опасность
обморожения
1016.4 1015.1 -41.9 28
00 14.12 штиль 0
{1}
50 км 4/0
[Ci fib]
-42.6 -47.5 58 -43 -43 опасность
обморожения
1016.2 1014.9 -42.7
03 14.12 штиль 0
{1}
50 км 6/0
[Ac trans Ci fib]
-42.1 -46.9 59 -42 -42 опасность
обморожения
1015.5 1014.3
06 14.12 штиль 0
{1}
50 км 4/0
[Ci fib]
-42.6 -47.5 58 -43 -43 опасность
обморожения
1015.1 1013.8
09 14.12 штиль 0
{1}
50 км 3/0
[Ci fib]
-42.6 -47.5 58 -43 -43 опасность
обморожения
1014.5 1013.2 -41.7
12 14.12 штиль 0
{1}
50 км 4/0
[Ci fib]
-42.3 -46.9 61 -42 -42 опасность
обморожения
1013.9 1012.7
15 14.12 штиль 0
{1}
50 км 3/0
[Ci fib]
-42.1 -46.9 59 -42 -42 опасность
обморожения
1013.0 1011.8
18 14.12 штиль 0
{1}
50 км 3/0
[Ci fib]
-42.5 -46.9 62 -43 -43 опасность
обморожения
1012.7 1011.4
21 14.12 штиль 0
{1}
50 км 3/0
[Ci fib]
-42.9 -47.5 60 -43 -43 опасность
обморожения
1012.7 1011.4 -42.9 28
00 15.12 штиль 0
{1}
50 км 1/0
[Ci fib]
-42.6 -47.5 58 -43 -43 опасность
обморожения
1012.4 1011.1
03 15.12 штиль 0
{1}
50 км ясно -42.7 -47.5 59 -43 -43 опасность
обморожения
1011.6 1010.3
06 15.12 штиль 0
{1}
50 км ?/? -42.8 -47.5 60 -43 -43 опасность
обморожения
1011.5 1010.2
09 15.12 штиль 0
{1}
50 км 3/0
[Ci fib]
-42.8 -47.5 60 -43 -43 опасность
обморожения
1011.5 1010.3 -42.3
12 15.12 штиль 0
{1}
50 км 3/0
[Ci fib]
-42.7 -47.5 59 -43 -43 опасность
обморожения
1011.6 1010.3
15 15.12 штиль 0
{2}
50 км 3/0
[Ci fib]
-42.3 -46.9 61 -42 -42 опасность
обморожения
1011.0 1009.8
18 15.12 штиль 0
{1}
50 км 1/0
[Ci fib]
-42.3 -46.9 61 -42 -42 опасность
обморожения
1010.7 1009.5
21 15.12 штиль 0
{1}
50 км 1/0
[Ci fib]
-42.3 -46.5 63 -42 -42 опасность
обморожения
1010.6 1009.4 -42.8 28
00 16.12 штиль 0
{1}
50 км 3/0
[Ci fib]
-42.3 -46.9 61 -42 -42 опасность
обморожения
1010.4 1009.2
03 16.12 штиль 0
{2}
50 км 3/0
[Ac trans Ci fib]
-42.1 -46.9 59 -42 -42 опасность
обморожения
1009.8 1008.6
06 16.12 штиль 0
{2}
50 км 3/0
[Ac trans Ci fib]
-42.0 -46.9 59 -42 -42 опасность
обморожения
1009.5 1008.3
09 16.12 штиль 0
{1}
50 км 3/0
[Ac trans]
-42.2 -46.9 60 -42 -42 опасность
обморожения
1009.3 1008.1 -41.7
12 16.12 штиль 0
{1}
50 км 8/0
[Ac trans Ci fib]
-40.5 -45.3 60 -41 -41 опасность
обморожения
1009.1 1007.9
15 16.12 штиль 0
{1}
50 км в посл. час снег 6/0
[Ci fib]
-39.4 -43.5 65 -39 -39 опасность
обморожения
1008.7 1007.5
18 16.12 штиль 0
{1}
50 км {снег} 6/0
[Ac trans Ci fib]
-39.7 -43.5 67 -40 -40 опасность
обморожения
1009.4 1008.2
21 16.12 штиль 0
{1}
50 км в посл. час снег 8/0
[Ac trans Ci fib]
-40.3 -45.3 59 -40 -40 опасность
обморожения
1010.6 1009.4 -42.3 0.0 28
00 17.12 штиль 0
{1}
50 км {снег} 8/0
[Ac trans Ci fib]
-40.2 -44.1 66 -40 -40 опасность
обморожения
1011.2 1010.0
03 17.12 штиль 0
{1}
50 км 8/0
[Ac trans]
-38.1 -42.3 64 -38 -38 опасность
обморожения
1012.0 1010.8
06 17.12 штиль 0
{1}
10 км снежные кристаллы 10/0
[As op]
-37.8 -41.8 66 -38 -38 опасность
обморожения
1013.0 1011.8

 

Местоположение метеостанции Константиновская (Чукотка, Россия): широта 68.15 долгота 161.10 высота над уровнем моря 8 м.

В архиве по умолчанию представлена погода в Константиновской за последнюю неделю. Архивные данные за месяц целиком и за предыдущие месяцы, начиная с января 2011 года, Вы можете получить, выбрав интересующий диапазон дат из раскрывающегося списка и нажав кнопку "Ввод!".


*Определитесь, кто Вы:
робот инопланетянин человек

Внимание! Время в таблицах - всемирное. Для получения местного времени необходимо прибавить поправку, которая в Константиновской равна 12 ч.

Смотрите также архив погоды в соседних городах и на ближайших метеорологических станциях:

Погода в Анюйске (Чукотка, Россия) (28 км)
Погода в Черском (Якутия, Россия) (65 км)
Погода в Колымской (Якутия, Россия) (120 км)
Погода на Островном (Чукотка, Россия) (124 км)
Погода в Бухте Амбарчик (Чукотка, Россия) (170 км)
Погода в Билибино (Чукотка, Россия) (220 км)
Погода в Баимке (Чукотка, Россия) (224 км)
Погода в Раучуе (Чукотка, Россия) (264 км)
Погода в Андрюшкино (Якутия, Россия) (290 км)
Погода в Илирнее (Чукотка, Россия) (304 км)

Пояснения к столбцам:

Ветер - указаны скорость ветра в м/с - средняя за 10 мин, порывы в срок и между сроками (в фигурных скобках) и направление, откуда дует ветер: С - северный, СВ - северо-восточный, В - восточный, ЮВ - юго-восточный, Ю - южный, ЮЗ - юго-западный, З - западный, СЗ - северо-западный.
Видимость - горизонтальная дальность видимости в метрах или километрах. При видимости от 1 до 10 км при отсутствии осадков обычно наблюдается дымка, при ухудшении видимости до 1 км и менее - туман. В сухую погоду видимость может ухудшаться дымом, пылью или мглою.
Явления - указаны атмосферные явления, наблюдавшиеся в срок или в последний час перед сроком; фигурными скобками обозначены явления, наблюдавшиеся между сроками (за 1-3 часа до срока); квадратными скобками обозначены град или гололедные отложения с указанием их диаметра в мм.
Облачность - указаны через наклонную черту общая и нижняя облачность в баллах и высота нижней границы облаков в метрах; квадратными скобками обозначены формы облаков: Ci - перистые, Cs - перисто-слоистые, Cc - перисто-кучевые, Ac - высококучевые, As - высокослоистые, Sc - слоисто-кучевые, Ns - слоисто-дождевые, Cu - кучевые, Cb - кучево-дождевые. Подробнее классификацию облаков см. в Атласе облаков (PDF).
T - Температура воздуха - температура, измеренная на высоте 2 м над землей.
Td - Температура точки росы - температура, при понижении до которой содержащийся в воздухе водяной пар достигнет насыщения.
f - Относительная влажность воздуха - влажноcть воздуха, измеренная на высоте 2 м над землей.
Te - Эффективная температура - температура, которую ощущает одетый по сезону человек в тени. Характеристика душности погоды. При расчете учитывается влияние влажности воздуха и скорости ветра на теплоощущения человека.
Tes - Эффективная температура на солнце - температура, которую ощущает человек, с поправкой на солнечный нагрев. Характеристика знойности погоды. Зависит от высоты солнца над горизонтом, облачности и скорости ветра. Ночью, в пасмурную погоду, а также при ветре 12 м/с и более поправка равна нулю.
P - Атмосферное давление - приведенное к уровню моря атмосферное давление.
Po - Атмосферное давление - измеренное на уровне метеостанции атмосферное давление.
Tmin - Минимальная температура - минимум температуры воздуха на высоте 2 м над землей.
Tmax - Максимальная температура - максимум температуры воздуха на высоте 2 м над землей.
R - Количество осадков - Количество выпавших осадков за период времени, мм. При наведении курсора мыши на число - период времени, за который выпало указанное количество осадков.
R24 - Количество осадков - Количество выпавших осадков за 24 часа, мм.
S - Снежный покров - Высота снежного покрова, см. При наведении курсора мыши на число - состояние снежного покрова и степень покрытия местности в баллах.